Location: Newark
(50.0306°N, 2.3272°E)
Time: 14:22:16
(UTC+00:00)

Vanguard 1 Rocket - All Passes

Search period start: 11 December 2019 00:00
Search period end: 21 December 2019 00:00
Orbit: 650 x 4226 km, 34.3° (Epoch: 10 December)

Date Brightness Start Highest point End Pass type
(mag) Time Alt. Az. Time Alt. Az. Time Alt. Az.
11 Dec - 17:45:17 10° S 17:56:10 16° SE 18:04:39 10° ESE visible
11 Dec - 20:08:10 10° SW 20:23:20 30° SSE 20:32:35 10° ESE visible
11 Dec - 22:37:19 10° WSW 22:49:20 33° S 22:56:19 10° SE visible
12 Dec - 01:07:52 10° WSW 01:13:24 17° SSW 01:17:27 10° S night (unlit)
12 Dec - 16:40:50 10° SE 16:43:40 10° SE 16:46:20 10° SE visible
12 Dec - 18:55:16 10° SSW 19:11:00 27° SSE 19:21:22 10° ESE visible
12 Dec - 21:23:06 10° SW 21:37:49 35° S 21:46:14 10° ESE visible
12 Dec - 23:53:33 10° WSW 00:02:52 26° SSW 00:08:42 10° SSE visible
13 Dec - 17:43:41 10° S 17:58:26 22° SSE 18:09:10 10° ESE visible
13 Dec - 20:09:02 10° SW 20:25:49 35° S 20:35:45 10° ESE visible
13 Dec - 22:39:11 10° WSW 22:51:52 34° SSW 22:59:10 10° SE visible
14 Dec - 01:10:45 10° WSW 01:15:43 15° SW 01:19:31 10° S night (unlit)
14 Dec - 16:34:33 10° SSE 16:45:45 16° SE 16:55:02 10° ESE visible
14 Dec - 18:55:32 10° SSW 19:13:23 32° SSE 19:24:43 10° ESE visible
14 Dec - 21:24:39 10° WSW 21:40:21 38° S 21:49:11 10° ESE visible
14 Dec - 23:55:51 10° WSW 00:05:16 25° SSW 00:11:15 10° SSE visible
15 Dec - 17:43:07 10° SSW 18:00:38 27° SSE 18:12:56 10° ESE visible
15 Dec - 20:10:10 10° SW 20:28:16 39° S 20:38:46 10° ESE visible
15 Dec - 22:41:08 10° WSW 22:54:20 34° SSW 23:01:55 10° SE visible
16 Dec - 01:14:01 10° WSW 01:17:55 13° SW 01:21:07 10° SSW night (unlit)
16 Dec - 16:32:25 10° S 16:47:47 21° SE 16:59:53 10° ESE visible
16 Dec - 18:56:11 10° SW 19:15:42 37° SSE 19:27:51 10° ESE visible
16 Dec - 21:26:18 10° WSW 21:42:48 40° S 21:52:02 10° ESE visible
16 Dec - 23:58:15 10° W 00:07:34 23° SW 00:13:37 10° SSE visible
17 Dec - 15:25:07 10° SSE 15:35:04 14° SE 15:43:56 10° ESE daylight
17 Dec - 17:43:09 10° SSW 18:02:47 32° SSE 18:16:18 10° E visible
17 Dec - 20:11:30 10° WSW 20:30:40 42° S 20:41:41 10° ESE visible
17 Dec - 22:43:11 10° WSW 22:56:42 33° SSW 23:04:33 10° SE visible
18 Dec - 01:18:30 10° WSW 01:20:00 10° SW 01:21:23 10° SW night (unlit)
18 Dec - 16:31:33 10° SSW 16:49:44 26° SE 17:03:46 10° E visible
18 Dec - 18:57:09 10° SW 19:17:59 41° SSE 19:30:50 10° ESE visible
18 Dec - 21:28:04 10° WSW 21:45:11 40° SSW 21:54:48 10° SE visible
19 Dec - 00:00:47 10° W 00:09:44 21° SW 00:15:46 10° S visible
19 Dec - 15:22:10 10° S 15:36:49 19° SE 15:49:28 10° ESE daylight
19 Dec - 17:43:40 10° SW 18:04:54 37° SSE 18:19:24 10° E visible
19 Dec - 20:13:01 10° WSW 20:33:00 44° S 20:44:31 10° ESE visible
19 Dec - 22:45:17 10° W 22:58:57 31° SSW 23:07:03 10° SSE visible
20 Dec - 14:18:26 10° SE 14:24:15 11° SE 14:29:52 10° ESE daylight
20 Dec - 16:31:27 10° SSW 16:51:39 31° SSE 17:07:09 10° E visible
20 Dec - 18:58:23 10° SW 19:20:13 44° S 19:33:43 10° ESE visible
20 Dec - 21:29:54 10° WSW 21:47:29 40° SSW 21:57:27 10° SE visible
